Location: Oak Glen
(34.0495°N, 116.9470°E)
Time: 00:48:20
(UTC-08:00)

Tiangong 2 - Pass Details

Date: 11 October 2017
Orbit: 386 x 390 km, 42.8° (Epoch: 15 December)

Event Time Altitude Azimuth Distance (km) Brightness Sun altitude
Exits shadow 13:55:49 23° 337° (NNW) 887 2.7 -17.1°
Maximum altitude 13:56:06 23° 346° (NNW) 879 2.7 -17.1°
Drops below altitude 10° 13:58:44 10° 41° (NE) 1,421 4.5 -16.5°
Sets 14:01:06 0° 57° (ENE) 2,279 6.0 -16.0°
